[[{"header":{"parameterUnit":"m.s-1","parameterCategory":1,"la1":30.2991,"la2":30.254,"lo1":-89.0895,"lo2":-89.0444,"dy":0.0017,"dx":0.0017,"nx":28,"ny":28,"refTime":"2024-08-14T09:00:00:Z","depth":0,"parameterNumber":2,"parameterNumberName":"U-component_of_WINDS"},"data":[0,0,0,0,0,0,0,0,0,0,0,0,0,0,0,0,0,0,0,0,0,0,0,0,0,0,0,0,0,0,0,0,0,0,0,0,0,0,0,0,0,0,0,0,0,0,0,0,0,0,0,0,0,0,0,0,0,0,-1.6099,-1.6099,0,-1.6152,-1.6153,-1.6153,-1.6145,-1.6144,-1.6143,-1.6142,-1.6199,-1.6201,-1.6204,0,0,0,0,0,0,0,0,0,0,0,0,0,-1.5991,-1.5993,-1.6099,-1.6099,-1.61,-1.6152,-1.6153,-1.6154,-1.6145,-1.6144,-1.6143,-1.6142,-1.6198,-1.6201,-1.6204,0,0,0,0,0,0,0,0,0,0,0,0,0,-1.6041,-1.5994,-1.6099,-1.6102,-1.6103,-1.6152,-1.6153,-1.6154,-1.6145,-1.6144,-1.6142,-1.6141,-1.6197,-1.6201,-1.6204,-1.6254,0,0,-1.6215,-1.6217,0,0,0,0,0,0,0,0,-1.6038,-1.6045,-1.6101,-1.6102,-1.6103,-1.614,-1.6136,-1.6187,-1.6146,-1.6129,-1.6142,-1.614,-1.6181,-1.6186,-1.6199,-1.6257,-1.6259,-1.6215,-1.6217,-1.6219,-1.622,0,0,0,0,0,0,0,-1.6034,-1.6042,-1.612,-1.6102,-1.6103,-1.6102,-1.6107,-1.6146,-1.6162,-1.6131,-1.613,-1.6136,-1.6181,-1.6195,-1.62,-1.626,-1.6215,-1.6218,-1.6221,-1.6222,-1.6361,-1.6363,0,0,0,0,0,0,-1.603,-1.604,-1.6118,-1.6122,-1.6066,-1.6105,-1.6111,-1.613,-1.6162,-1.6165,-1.6137,-1.6136,-1.619,-1.6196,-1.6202,-1.6262,-1.6219,-1.6222,-1.6224,-1.636,-1.6362,-1.6364,0,0,0,0,0,0,-1.6028,-1.6037,-1.6116,-1.608,-1.609,-1.6108,-1.6129,-1.6132,-1.6146,-1.6167,-1.617,-1.6149,-1.6189,-1.6197,-1.6241,-1.6264,-1.6224,-1.6227,-1.6358,-1.636,-1.6363,-1.6383,0,0,0,0,0,0,-1.6024,-1.6036,-1.6055,-1.6081,-1.6092,-1.6154,-1.6131,-1.6134,-1.6152,-1.615,-1.6178,-1.6182,-1.6188,-1.6236,-1.6244,-1.6268,-1.623,-1.6356,-1.6359,-1.6362,-1.638,-1.6386,-1.639,0,0,0,0,0,-1.6021,-1.6059,-1.6056,-1.6065,-1.6116,-1.6155,-1.6162,-1.6168,-1.6154,-1.6173,-1.6186,-1.6181,-1.626,-1.624,-1.625,-1.6275,-1.6355,-1.6358,-1.6362,-1.6378,-1.6385,-1.639,0,0,0,0,0,0,-1.6036,-1.6062,-1.6059,-1.6107,-1.6129,-1.6153,-1.6178,-1.6175,-1.6202,-1.6199,-1.6206,-1.6213,-1.6257,-1.6271,-1.6248,-1.6325,-1.6305,-1.6311,-1.6315,-1.6321,-1.6326,-1.6322,-1.6233,0,0,0,0,0,-1.6044,-1.6073,-1.6095,-1.6135,-1.6146,-1.616,-1.6178,-1.618,-1.6204,-1.6213,-1.623,-1.6253,-1.6283,-1.6303,-1.6332,-1.6382,-1.6389,-1.6405,-1.641,-1.6414,-1.6418,-1.6446,-1.6454,-1.6375,-1.6375,-1.6375,0,0,-1.6063,-1.6081,-1.6099,-1.6139,-1.6156,-1.6186,-1.6168,-1.6201,-1.6224,-1.6218,-1.6261,-1.6274,-1.63,-1.6348,-1.637,-1.636,-1.6442,-1.6418,-1.6421,-1.6424,-1.6451,-1.6458,-1.6465,-1.6377,-1.6377,-1.6377,0,0,-1.6112,-1.6129,-1.6164,-1.6181,-1.6207,-1.6216,-1.6225,-1.625,-1.6258,-1.6301,-1.6297,-1.6325,-1.6377,-1.6396,-1.6412,-1.6469,-1.6465,-1.6478,-1.6504,-1.6531,-1.6538,-1.6543,-1.6563,-1.657,-1.6483,-1.6483,-1.6483,0,-1.6132,-1.6177,-1.6182,-1.6215,-1.6233,-1.6229,-1.6265,-1.6282,-1.6316,-1.6329,-1.6318,-1.6383,-1.64,-1.6452,-1.6466,-1.6479,-1.649,-1.6475,-1.6536,-1.6542,-1.6547,-1.6566,-1.6574,-1.6484,-1.6484,-1.6484,-1.6484,0,-1.62,-1.6231,-1.6257,-1.6289,-1.631,-1.6344,-1.6355,-1.6376,-1.6377,-1.6387,-1.6431,-1.6452,-1.6485,-1.6497,-1.6499,-1.655,-1.6543,-1.6534,-1.6515,-1.6556,-1.6574,-1.6581,-1.6486,-1.6486,-1.6485,-1.6485,0,0,-1.626,-1.6295,-1.6304,-1.6319,-1.6347,-1.6372,-1.6406,-1.6438,-1.6455,-1.648,-1.6509,-1.6553,-1.6544,-1.6563,-1.6567,-1.6591,-1.6634,-1.6579,-1.658,-1.6588,-1.6691,-1.6698,-1.6706,-1.6632,-1.6633,-1.6635,-1.6689,0,-1.6312,-1.6372,-1.6377,-1.6431,-1.646,-1.6457,-1.6487,-1.6508,-1.6519,-1.6546,-1.6558,-1.6589,-1.6575,-1.6587,-1.661,-1.6624,-1.6655,-1.662,-1.666,-1.6661,-1.6653,-1.6716,-1.6723,-1.6773,-1.6696,-1.6697,-1.6698,0,-1.638,-1.6405,-1.6462,-1.6486,-1.6498,-1.6525,-1.6555,-1.658,-1.6604,-1.6611,-1.6631,-1.6632,-1.6668,-1.6648,-1.6698,-1.6674,-1.6691,-1.67,-1.6702,-1.6706,-1.6682,-1.6721,-1.6789,-1.6797,-1.671,-1.6709,-1.6708,0,-1.6418,-1.6466,-1.6506,-1.6519,-1.6548,-1.6567,-1.658,-1.6603,-1.6622,-1.6648,-1.666,-1.669,-1.6707,-1.6731,-1.674,-1.6724,-1.679,-1.677,-1.6797,-1.6796,-1.681,-1.6809,-1.6882,-1.6821,-1.6821,-1.6821,-1.6821,0,-1.6475,-1.651,-1.6523,-1.6548,-1.6587,-1.6594,-1.6632,-1.6645,-1.6665,-1.6692,-1.6692,-1.6718,-1.6729,-1.6757,-1.6764,-1.6805,-1.6812,-1.6819,-1.682,-1.6819,-1.6818,-1.683,-1.6826,-1.6823,-1.6823,-1.6822,-1.6822,0,-1.6524,-1.6534,-1.6578,-1.6602,-1.6609,-1.6636,-1.6657,-1.6681,-1.6692,-1.6726,-1.6735,-1.6752,-1.6784,-1.6796,-1.6836,-1.6842,-1.6888,-1.6887,-1.688,-1.688,-1.6906,-1.6904,-1.6989,-1.7,-1.6932,-1.6933,-1.6933,0,-1.6559,-1.6586,-1.6612,-1.663,-1.6644,-1.6673,-1.6692,-1.67,-1.672,-1.6749,-1.677,-1.6802,-1.6828,-1.6881,-1.6897,-1.6928,-1.6928,-1.6955,-1.6932,-1.693,-1.6928,-1.6926,-1.6929,-1.696,-1.696,-1.6961,-1.6961,0,-1.6621,-1.6625,-1.6652,-1.668,-1.6702,-1.6726,-1.6748,-1.6763,-1.6774,-1.6797,-1.683,-1.685,-1.6891,-1.6923,-1.6955,-1.6969,-1.6968,-1.6968,-1.6976,-1.6975,-1.6969,-1.6972,-1.6891,-1.6966,-1.6966,-1.6966,-1.6965,-1.6965,-1.6664,-1.6688,-1.671,-1.674,-1.6757,-1.6778,-1.6802,-1.6815,-1.6842,-1.6875,-1.6879,-1.6914,-1.6938,-1.698,-1.6996,-1.7025,-1.7017,-1.7029,-1.7032,-1.7034,-1.7036,-1.6965,-1.7031,-1.7031,-1.7031,-1.703,-1.703,0,-1.6726,-1.674,-1.6767,-1.6798,-1.6822,-1.6817,-1.6842,-1.6862,-1.6893,-1.6915,-1.6941,-1.6979,-1.7011,-1.7029,-1.7061,-1.708,-1.708,-1.7088,-1.7087,-1.709,-1.7041,-1.7031,-1.7088,-1.7088,-1.7088,-1.7088,-1.7088,-1.7088,-1.6761,-1.68,-1.6807,-1.6855,-1.6869,-1.6903,-1.6917,-1.6937,-1.6954,-1.6997,-1.7022,-1.7034,-1.7055,-1.7088,-1.7117,-1.7122,-1.7133,-1.7142,-1.7146,-1.71,-1.7094,-1.7088,-1.7079,-1.7144,-1.7145,-1.7193,-1.7193,-1.7194]},{"header":{"parameterUnit":"m.s-1","parameterCategory":1,"la1":30.2991,"la2":30.254,"lo1":-89.0895,"lo2":-89.0444,"dy":0.0017,"dx":0.0017,"nx":28,"ny":28,"refTime":"2024-08-14T09:00:00:Z","depth":0,"parameterNumber":3,"parameterNumberName":"V-component_of_WINDS"},"data":[0,0,0,0,0,0,0,0,0,0,0,0,0,0,0,0,0,0,0,0,0,0,0,0,0,0,0,0,0,0,0,0,0,0,0,0,0,0,0,0,0,0,0,0,0,0,0,0,0,0,0,0,0,0,0,0,0,0,2.0121,2.0121,0,2.009,2.0089,2.0089,2.0054,2.0053,2.0053,2.0052,2.0018,2.0018,2.0017,0,0,0,0,0,0,0,0,0,0,0,0,0,2.015,2.015,2.0121,2.0121,2.0121,2.009,2.0089,2.0089,2.0054,2.0053,2.0053,2.0052,2.0018,2.0018,2.0017,0,0,0,0,0,0,0,0,0,0,0,0,0,2.013,2.015,2.0121,2.0099,2.0097,2.009,2.0089,2.0089,2.0054,2.0053,2.0052,2.0052,2.0018,2.0018,2.0017,2.0028,0,0,2.0015,2.0015,0,0,0,0,0,0,0,0,2.0131,2.0129,2.0103,2.0101,2.0098,2.0075,2.0087,2.0068,2.0054,2.007,2.0052,2.0051,2.0037,2.0035,2.0031,2.0026,2.0025,2.0015,2.0015,2.0014,2.0014,0,0,0,0,0,0,0,2.0133,2.013,2.0109,2.0103,2.01,2.0091,2.0087,2.0083,2.0058,2.0069,2.0066,2.0063,2.0036,2.0032,2.003,2.0024,2.0015,2.0014,2.0014,2.0014,2.0026,2.0027,0,0,0,0,0,0,2.0138,2.0131,2.011,2.0108,2.0113,2.0091,2.0087,2.0083,2.0058,2.0054,2.0064,2.0062,2.0033,2.0031,2.0028,2.0039,2.0014,2.0014,2.0013,2.0025,2.0026,2.0027,0,0,0,0,0,0,2.0138,2.0136,2.0111,2.0119,2.0115,2.0091,2.0087,2.0083,2.0078,2.0055,2.005,2.0064,2.0032,2.0029,2.0028,2.0037,2.0013,2.0013,2.0025,2.0026,2.0027,2.006,0,0,0,0,0,0,2.0139,2.0136,2.0141,2.0119,2.0115,2.0112,2.0088,2.0083,2.0078,2.0074,2.0053,2.0049,2.0032,2.0029,2.0028,2.0036,2.0012,2.0024,2.0025,2.0026,2.0058,2.0062,2.0065,0,0,0,0,0,2.014,2.0151,2.0141,2.0139,2.012,2.0113,2.011,2.009,2.0078,2.0082,2.0067,2.005,2.0037,2.003,2.0027,2.0035,2.0023,2.0025,2.0026,2.0056,2.0061,2.0065,0,0,0,0,0,0,2.0174,2.0148,2.0137,2.0141,2.0129,2.0107,2.0111,2.0096,2.0087,2.0084,2.0059,2.0055,2.0057,2.0046,2.0039,2.0044,2.0027,2.0029,2.0051,2.0055,2.0059,2.0061,2.0012,0,0,0,0,0,2.0182,2.0179,2.0156,2.0162,2.0157,2.0135,2.0131,2.0117,2.0104,2.0098,2.0083,2.007,2.0063,2.0059,2.0051,2.0056,2.0051,2.0061,2.0064,2.0068,2.0069,2.007,2.0073,2.0033,2.0033,2.0033,0,0,2.0198,2.0184,2.0183,2.0168,2.0158,2.0154,2.0131,2.0129,2.0126,2.0098,2.0096,2.0084,2.0068,2.007,2.007,2.0061,2.0079,2.007,2.0073,2.0072,2.0072,2.0076,2.0079,2.0034,2.0033,2.0033,0,0,2.0226,2.0215,2.0218,2.0208,2.0192,2.0178,2.0179,2.0158,2.015,2.0147,2.0126,2.0122,2.011,2.0099,2.0092,2.0116,2.0099,2.0114,2.0133,2.0135,2.0138,2.014,2.0148,2.0151,2.0115,2.0115,2.0115,0,2.0248,2.0242,2.0222,2.022,2.0214,2.0189,2.0192,2.0183,2.0165,2.0161,2.0152,2.0136,2.0124,2.0122,2.0128,2.0124,2.0123,2.0116,2.0139,2.0142,2.0144,2.015,2.0153,2.0117,2.0117,2.0117,2.0117,0,2.0269,2.0266,2.027,2.0254,2.0249,2.025,2.0228,2.0225,2.0211,2.0197,2.0195,2.0179,2.0167,2.0166,2.0153,2.0162,2.0157,2.0144,2.0126,2.015,2.0155,2.0158,2.012,2.0119,2.0119,2.0118,0,0,2.0316,2.0289,2.0291,2.0283,2.0264,2.026,2.026,2.0249,2.0246,2.0235,2.0232,2.0223,2.0211,2.0203,2.0188,2.0189,2.0207,2.0175,2.0174,2.018,2.0215,2.0225,2.0228,2.0196,2.0197,2.0197,2.0216,0,2.034,2.0337,2.0319,2.0322,2.0317,2.0294,2.0293,2.0281,2.0268,2.0262,2.0248,2.0241,2.0225,2.022,2.0221,2.0205,2.0213,2.0203,2.0193,2.0193,2.0197,2.0231,2.0241,2.026,2.0219,2.0219,2.0219,0,2.0366,2.0357,2.0359,2.034,2.0337,2.0337,2.0325,2.032,2.0305,2.0296,2.0287,2.027,2.0267,2.0252,2.0246,2.024,2.0235,2.0226,2.0226,2.0224,2.0207,2.0228,2.0266,2.0268,2.0223,2.0222,2.0222,0,2.0399,2.0387,2.0387,2.0381,2.0358,2.0358,2.0349,2.0333,2.0328,2.0317,2.0313,2.0302,2.0295,2.0287,2.0267,2.0258,2.0264,2.0247,2.0254,2.0255,2.0256,2.0256,2.0292,2.0255,2.0255,2.0255,2.0254,0,2.0426,2.0428,2.0401,2.0401,2.0402,2.0381,2.0382,2.037,2.0357,2.0353,2.0332,2.0329,2.0304,2.0297,2.0282,2.0279,2.0277,2.0268,2.0264,2.0269,2.027,2.0265,2.0262,2.0255,2.0255,2.0255,2.0255,0,2.0463,2.0445,2.0442,2.0421,2.0416,2.0418,2.0399,2.0397,2.0383,2.0379,2.0377,2.0354,2.0345,2.0325,2.0311,2.0301,2.0301,2.0294,2.0306,2.0303,2.0312,2.0311,2.0345,2.0347,2.031,2.031,2.031,0,2.0481,2.0482,2.0461,2.0457,2.0448,2.0443,2.0437,2.0416,2.041,2.0393,2.0393,2.0383,2.0374,2.0361,2.0343,2.0331,2.0323,2.0336,2.0321,2.0327,2.0322,2.0322,2.0321,2.0339,2.0339,2.034,2.034,0,2.0514,2.0505,2.0498,2.0487,2.0481,2.0471,2.0461,2.0459,2.0435,2.0429,2.0421,2.0413,2.0399,2.0389,2.0375,2.0364,2.0347,2.0345,2.0346,2.0351,2.0357,2.0353,2.0314,2.0344,2.0343,2.0343,2.0343,2.0343,2.0541,2.054,2.0526,2.0518,2.0508,2.0498,2.0495,2.0481,2.0474,2.0461,2.0448,2.044,2.0425,2.0404,2.0394,2.0387,2.0379,2.0381,2.0381,2.0381,2.0383,2.036,2.0385,2.0385,2.0384,2.0384,2.0384,0,2.0572,2.0562,2.0555,2.0541,2.0534,2.0521,2.0508,2.0503,2.0497,2.0484,2.0476,2.0465,2.0455,2.0436,2.0424,2.0421,2.0413,2.0419,2.0418,2.0415,2.0392,2.0392,2.0425,2.0425,2.0425,2.0425,2.0425,2.0425,2.0588,2.0586,2.0575,2.0568,2.0557,2.055,2.0543,2.0534,2.0524,2.0513,2.0505,2.0493,2.0477,2.0463,2.0453,2.0448,2.0443,2.0451,2.0443,2.0421,2.0417,2.0414,2.0413,2.0451,2.0451,2.0467,2.0467,2.0467]}]]